Bremerton, WA

1:14 PM PDT on July 23, 2017 (GMT -0700)
Bremerton National

Weather History for KPWT - May, 2013

Change the Weather History Date:

Thursday, May 30, 2013

  Actual Average Record
Temperature  
Mean Temperature 50 °F -  
Max Temperature 57 °F 63 °F 84 °F (2007)
Min Temperature 44 °F 44 °F 37 °F (1999)
Degree Days  
Heating Degree Days 14    
Moisture  
Dew Point 45 °F    
Average Humidity 80    
Maximum Humidity 93    
Minimum Humidity 67    
Precipitation  
Precipitation 0.07 in - - ()
Sea Level Pressure  
Sea Level Pressure 30.14 in    
Wind  
Wind Speed 11 mph (South)    
Max Wind Speed 17 mph    
Max Gust Speed 32 mph    
Visibility 10 miles    
Events      
Averages and records for this station are not official NWS values.
T = Trace of Precipitation, MM = Missing Value Source: NWS Daily Summary

Daily Weather History Graph

Daily Weather History Graph

Search for Another Location

Airport or City:

Trip Planner

Search our weather history database for the weather conditions in past years. The results will help you decide how hot, cold, wet, or windy it might be!

Date:

Astronomy

May. 30, 2013 Rise Set
Actual Time 5:18 AM PDT 8:58 PM PDT
Civil Twilight 4:40 AM PDT 9:37 PM PDT
Nautical Twilight 3:47 AM PDT 10:30 PM PDT
Astronomical Twilight 2:35 AM PDT 11:44 PM PDT
Moon 12:47 AM PDT (5/30) 11:51 AM PDT (5/30)
Length of Visible Light 16h 57m
Length of Day
15h 39m
Waning Gibbous, 61% of the Moon is Illuminated
May 30
Waning Gibbous
May 31
Last Quarter
Jun 8
New
Jun 16
First Quarter
Jun 23
Full

Hourly Weather History & Observations

Time (PDT) Temp. Windchill Dew Point Humidity Pressure Visibility Wind Dir Wind Speed Gust Speed Precip Events Conditions
12:15 AM 48.2 °F - 42.8 °F 82% 30.01 in 10.0 mi South 12.7 mph - N/A   Mostly Cloudy
12:35 AM 48.2 °F - 42.8 °F 82% 30.01 in 10.0 mi SSW 11.5 mph - N/A   Partly Cloudy
12:55 AM 46.4 °F 41.1 °F 42.8 °F 87% 30.00 in 10.0 mi SSW 11.5 mph - N/A   Clear
1:15 AM 46.4 °F 41.5 °F 42.8 °F 87% 30.01 in 10.0 mi South 10.4 mph - N/A   Clear
1:35 AM 46.4 °F 41.5 °F 42.8 °F 87% 30.02 in 10.0 mi South 10.4 mph - N/A   Clear
1:55 AM 46.4 °F 41.1 °F 42.8 °F 87% 30.01 in 10.0 mi South 11.5 mph - N/A   Clear
2:15 AM 46.4 °F 41.5 °F 42.8 °F 87% 30.02 in 10.0 mi South 10.4 mph - N/A   Clear
2:35 AM 44.6 °F 39.2 °F 42.8 °F 93% 30.03 in 10.0 mi South 10.4 mph - N/A   Clear
2:55 AM 44.6 °F 39.7 °F 42.8 °F 93% 30.02 in 10.0 mi South 9.2 mph - N/A   Clear
3:15 AM 44.6 °F 41.4 °F 42.8 °F 93% 30.04 in 10.0 mi South 5.8 mph - N/A   Partly Cloudy
3:35 AM 46.4 °F 42.4 °F 42.8 °F 87% 30.03 in 10.0 mi South 8.1 mph - N/A   Mostly Cloudy
3:55 AM 46.4 °F 43.5 °F 42.8 °F 87% 30.04 in 10.0 mi South 5.8 mph - N/A   Overcast
4:15 AM 46.4 °F 43.5 °F 42.8 °F 87% 30.05 in 10.0 mi South 5.8 mph - N/A   Overcast
4:35 AM 46.4 °F 41.9 °F 42.8 °F 87% 30.04 in 10.0 mi South 9.2 mph - N/A   Mostly Cloudy
4:55 AM 46.4 °F 41.9 °F 42.8 °F 87% 30.05 in 10.0 mi South 9.2 mph - N/A   Mostly Cloudy
5:15 AM 46.4 °F 41.9 °F 42.8 °F 87% 30.06 in 10.0 mi South 9.2 mph - N/A   Scattered Clouds
5:35 AM 46.4 °F 41.9 °F 42.8 °F 87% 30.06 in 10.0 mi South 9.2 mph - N/A   Scattered Clouds
5:55 AM 46.4 °F 41.9 °F 42.8 °F 87% 30.07 in 10.0 mi South 9.2 mph - N/A   Mostly Cloudy
6:15 AM 46.4 °F 41.5 °F 44.6 °F 93% 30.08 in 10.0 mi South 10.4 mph - N/A   Mostly Cloudy
6:35 AM 48.2 °F - 44.6 °F 87% 30.08 in 10.0 mi South 10.4 mph - N/A   Overcast
6:55 AM 48.2 °F - 44.6 °F 87% 30.07 in 10.0 mi South 9.2 mph - N/A   Mostly Cloudy
7:15 AM 48.2 °F - 44.6 °F 87% 30.08 in 10.0 mi SSW 11.5 mph - N/A   Mostly Cloudy
7:35 AM 48.2 °F - 44.6 °F 87% 30.09 in 10.0 mi South 11.5 mph - N/A   Scattered Clouds
7:55 AM 50.0 °F - 44.6 °F 82% 30.10 in 10.0 mi South 10.4 mph - N/A   Mostly Cloudy
8:15 AM 50.0 °F - 44.6 °F 82% 30.11 in 10.0 mi South 15.0 mph 18.4 mph N/A   Overcast
8:35 AM 53.6 °F - 46.4 °F 77% 30.12 in 10.0 mi South 9.2 mph - N/A   Mostly Cloudy
8:55 AM 51.8 °F - 44.6 °F 76% 30.12 in 10.0 mi SSW 13.8 mph - N/A   Mostly Cloudy
9:15 AM 51.8 °F - 44.6 °F 76% 30.12 in 10.0 mi South 12.7 mph - N/A   Overcast
9:35 AM 53.6 °F - 44.6 °F 72% 30.11 in 10.0 mi South 9.2 mph - N/A   Overcast
9:55 AM 51.8 °F - 44.6 °F 76% 30.12 in 10.0 mi SSW 9.2 mph - N/A   Overcast
10:15 AM 51.8 °F - 44.6 °F 76% 30.13 in 10.0 mi South 12.7 mph 16.1 mph N/A   Overcast
10:35 AM 51.8 °F - 44.6 °F 76% 30.13 in 10.0 mi South 11.5 mph - 0.01 in   Overcast
10:55 AM 53.6 °F - 44.6 °F 72% 30.14 in 10.0 mi South 10.4 mph - 0.01 in   Overcast
11:15 AM 53.6 °F - 44.6 °F 72% 30.14 in 10.0 mi South 9.2 mph - N/A   Overcast
11:35 AM 53.6 °F - 44.6 °F 72% 30.14 in 10.0 mi South 10.4 mph - N/A   Overcast
11:55 AM 53.6 °F - 44.6 °F 72% 30.15 in 10.0 mi South 11.5 mph 16.1 mph N/A   Mostly Cloudy
12:15 PM 53.6 °F - 44.6 °F 72% 30.17 in 10.0 mi SSW 17.3 mph 21.9 mph N/A   Overcast
12:35 PM 51.8 °F - 46.4 °F 82% 30.17 in 10.0 mi South 11.5 mph - N/A   Overcast
12:55 PM 53.6 °F - 48.2 °F 82% 30.16 in 10.0 mi SSW 11.5 mph - N/A   Mostly Cloudy
1:15 PM 55.4 °F - 46.4 °F 72% 30.15 in 10.0 mi South 11.5 mph 19.6 mph N/A   Mostly Cloudy
1:35 PM 53.6 °F - 48.2 °F 82% 30.16 in 10.0 mi South 11.5 mph 18.4 mph N/A   Overcast
1:55 PM 55.4 °F - 48.2 °F 77% 30.16 in 10.0 mi South 10.4 mph 18.4 mph N/A   Mostly Cloudy
2:15 PM 57.2 °F - 46.4 °F 67% 30.17 in 10.0 mi South 12.7 mph - N/A   Partly Cloudy
2:35 PM 53.6 °F - 44.6 °F 72% 30.19 in 8.0 mi SSW 17.3 mph 32.2 mph 0.01 in   Mostly Cloudy
2:55 PM 50.0 °F - 46.4 °F 87% 30.18 in 10.0 mi SSW 11.5 mph - 0.06 in   Mostly Cloudy
3:15 PM 53.6 °F - 48.2 °F 82% 30.18 in 10.0 mi SSW 8.1 mph - N/A   Mostly Cloudy
3:35 PM 55.4 °F - 48.2 °F 77% 30.19 in 10.0 mi SSW 15.0 mph - N/A   Scattered Clouds
3:55 PM 57.2 °F - 48.2 °F 72% 30.18 in 10.0 mi SSW 13.8 mph - N/A   Partly Cloudy
4:15 PM 55.4 °F - 50.0 °F 82% 30.18 in 10.0 mi South 12.7 mph 17.3 mph N/A   Partly Cloudy
4:35 PM 53.6 °F - 48.2 °F 82% 30.18 in 10.0 mi South 11.5 mph - N/A   Mostly Cloudy
4:55 PM 53.6 °F - 46.4 °F 77% 30.17 in 10.0 mi South 12.7 mph 17.3 mph N/A   Overcast
5:15 PM 55.4 °F - 48.2 °F 77% 30.18 in 10.0 mi SSW 12.7 mph - N/A   Mostly Cloudy
5:35 PM 57.2 °F - 48.2 °F 72% 30.16 in 10.0 mi South 16.1 mph 23.0 mph N/A   Scattered Clouds
5:55 PM 55.4 °F - 46.4 °F 72% 30.18 in 10.0 mi SSW 13.8 mph 21.9 mph N/A   Partly Cloudy
6:15 PM 55.4 °F - 46.4 °F 72% 30.19 in 10.0 mi SSW 15.0 mph - N/A   Mostly Cloudy
6:35 PM 55.4 °F - 46.4 °F 72% 30.20 in 10.0 mi SSW 11.5 mph - N/A   Mostly Cloudy
6:55 PM 53.6 °F - 46.4 °F 77% 30.19 in 10.0 mi South 11.5 mph - N/A   Mostly Cloudy
7:15 PM 53.6 °F - 46.4 °F 77% 30.19 in 10.0 mi SSW 13.8 mph - N/A   Overcast
7:35 PM 53.6 °F - 44.6 °F 72% 30.20 in 10.0 mi SSW 12.7 mph - N/A   Overcast
7:55 PM 53.6 °F - 44.6 °F 72% 30.21 in 10.0 mi SSW 10.4 mph 18.4 mph N/A   Overcast
8:15 PM 53.6 °F - 44.6 °F 72% 30.21 in 10.0 mi South 11.5 mph - N/A   Overcast
8:35 PM 51.8 °F - 44.6 °F 76% 30.21 in 10.0 mi South 11.5 mph - N/A   Overcast
8:55 PM 51.8 °F - 42.8 °F 71% 30.22 in 10.0 mi South 6.9 mph - N/A   Overcast
9:15 PM 50.0 °F - 42.8 °F 76% 30.22 in 10.0 mi South 4.6 mph - N/A   Overcast
9:35 PM 48.2 °F - 42.8 °F 82% 30.23 in 10.0 mi South 4.6 mph - N/A   Overcast
9:55 PM 48.2 °F - 42.8 °F 82% 30.24 in 10.0 mi WSW 3.5 mph - N/A   Scattered Clouds
10:15 PM 48.2 °F - 42.8 °F 82% 30.25 in 10.0 mi South 3.5 mph - N/A   Partly Cloudy
10:35 PM 48.2 °F - 42.8 °F 82% 30.26 in 10.0 mi Calm Calm - N/A   Mostly Cloudy
10:55 PM 48.2 °F - 44.6 °F 87% 30.26 in 10.0 mi South 4.6 mph - N/A   Mostly Cloudy
11:15 PM 46.4 °F 44.3 °F 42.8 °F 87% 30.27 in 10.0 mi South 4.6 mph - N/A   Partly Cloudy
11:35 PM 48.2 °F - 44.6 °F 87% 30.27 in 10.0 mi South 5.8 mph - N/A   Clear
11:55 PM 46.4 °F - 42.8 °F 87% 30.28 in 10.0 mi Calm Calm - N/A   Clear